Flag for Ireland Weather past 2 weeks in Dublin, Ireland

Now
48 °F

Passing clouds.


Feels Like: 45 °F
Forecast: 44 / 63 °F
Wind: 8 mph from Northwest

Location: Dublin Airport

Current Time: Aug 22, 2014 at 2:05:31 AM

Latest Report: Aug 22, 2014 at 1:30 AM


Visibility: N/A

Pressure: 29.86 "Hg

Humidity: 94%

Dew point: 46 °F

Location of DublinLocation

Historic Weather in Dublin — Graph

°F

Dublin temperature yesterday

Maximum temperature yesterday: 61 °F (at 1:30 PM)
Minimum temperature yesterday: 48 °F (at 11:30 PM)
Average temperature yesterday: 54 °F

Past Weeks' High & Low Weather Summary

 TemperatureHumidityPressure
High68 °F (Aug 7, 5:30 PM)100% (Aug 10, 12:30 AM)30.18 "Hg (Aug 10, 12:30 AM)
Low41 °F (Aug 20, 2:30 AM)48% (Aug 18, 2:30 PM)29.39 "Hg (Aug 10, 6:00 AM)
Average56 °F79%29.82 "Hg
* Reported Aug 7 1:00 AM — Aug 22 1:00 AM, Dublin, Weather by CustomWeather, © 2014

Note: Actual official high and low records may vary slightly from our data, if they occured in-between our weather recording intervals... More about our weather records

Advertising

Dublin weather history for previous 24 hours

 ConditionsComfort  
Time TempWeatherWind HumidityBarometerVisibility
1:00 AM
Aug 22
48 °FPassing clouds.9 mph94%29.86 "HgN/A
12:30 AM48 °FPassing clouds.9 mph87%29.86 "HgN/A
12:00 AM46 °FPassing clouds.8 mph93%29.86 "HgN/A
11:30 PM
Aug 21
48 °FPassing clouds.8 mph87%29.83 "HgN/A
11:00 PM50 °FPassing clouds.9 mph88%29.83 "HgN/A
10:30 PM50 °FPassing clouds.8 mph94%29.83 "HgN/A
10:00 PM52 °FPassing clouds.8 mph88%29.83 "HgN/A
9:30 PM54 °FSprinkles. Scattered clouds.8 mph88%29.83 "HgN/A
9:00 PM54 °FPartly sunny.8 mph88%29.80 "HgN/A
8:30 PM55 °FSprinkles. Scattered clouds.9 mph88%29.80 "HgN/A
8:00 PM57 °FSprinkles. Scattered clouds.13 mph82%29.80 "HgN/A
7:30 PM57 °FScattered showers. Scattered clouds.12 mph82%29.77 "HgN/A
7:00 PM57 °FScattered clouds.14 mph82%29.77 "HgN/A
6:30 PM59 °FPartly sunny.12 mph82%29.77 "HgN/A
6:00 PM57 °FPartly sunny.10 mph88%29.77 "HgN/A
5:30 PM55 °FSprinkles. Partly sunny.12 mph94%29.80 "HgN/A
4:00 PM57 °FSprinkles. Partly sunny.16 mph88%29.80 "Hg5 mi
3:30 PM57 °FSprinkles. Broken clouds.21 mph82%29.80 "Hg3 mi
3:00 PM59 °FBroken clouds.17 mph82%29.80 "HgN/A
2:30 PM59 °FBroken clouds.21 mph88%29.80 "HgN/A
2:00 PM59 °FSprinkles. Broken clouds.21 mph72%29.80 "HgN/A
1:30 PM61 °FScattered clouds.18 mph68%29.83 "HgN/A
1:00 PM57 °FBroken clouds.20 mph77%29.83 "HgN/A
12:30 PM57 °FSprinkles. Broken clouds.21 mph72%29.83 "HgN/A
12:00 PM57 °FBroken clouds.21 mph77%29.83 "HgN/A
11:30 AM55 °FBroken clouds.18 mph77%29.86 "HgN/A
11:00 AM55 °FBroken clouds.18 mph77%29.86 "HgN/A
10:30 AM55 °FBroken clouds.18 mph77%29.86 "HgN/A
10:00 AM55 °FBroken clouds.16 mph77%29.89 "HgN/A
9:30 AM54 °FPartly sunny.16 mph82%29.89 "HgN/A
9:00 AM54 °FPartly sunny.16 mph82%29.89 "HgN/A
8:30 AM52 °FPartly sunny.16 mph82%29.89 "HgN/A
8:00 AM52 °FPartly sunny.15 mph82%29.89 "HgN/A
7:30 AM50 °FBroken clouds.15 mph82%29.92 "HgN/A
7:00 AM50 °FPassing clouds.12 mph82%29.92 "HgN/A
6:30 AM50 °FPartly cloudy.13 mph82%29.92 "HgN/A
6:00 AM50 °FPartly cloudy.12 mph88%29.92 "HgN/A
5:30 AM50 °FPartly cloudy.10 mph88%29.95 "HgN/A
5:00 AM50 °FPassing clouds.9 mph88%29.95 "HgN/A
4:30 AM50 °FPassing clouds.9 mph88%29.95 "HgN/A
4:00 AM50 °FPassing clouds.10 mph88%29.98 "HgN/A
3:30 AM50 °FPassing clouds.8 mph88%29.98 "HgN/A
3:00 AM50 °FPassing clouds.9 mph88%30.01 "HgN/A
2:30 AM52 °FPassing clouds.8 mph82%30.01 "HgN/A
2:00 AM50 °FPassing clouds.9 mph88%30.01 "HgN/A
Weather by CustomWeather, © 2014

See weather overviewHow to use our weather pages